Voltar ao catálogo

COSMOS 886 DEB

AtivoLEO
NORAD 9807·DEBRIS·🇷🇺 Russia

Lançado Dec 27, 1976 de Baikonur Cosmodrome

Loading…

Próximas Passagens (próximas 24 horas)

TLE

AtualizadoSource: Space-Track

Época: Sep 13, 2026, 20:42 UTC

1 09807U 76126AA  26256.86275772  .00011926  00000-0  15960-2 0  9993
2 09807  65.7663  65.1442 0347875 152.9930 208.9757 14.45542333447720

Acompanhe COSMOS 886 DEB em tempo real com AllMySat

Download on the App Store